Regional Weather Roundup
Issued by NWS

Home | Current Version | Previous Version | Graphics & Text | Print | Product List | Glossary On
Versions: 1 2 3 4 5 6 7 8 9 10 11 12 13 14 15 16 17 18 19 20 21 22 23 24 25 26 27 28 29 30 31 32 33 34 35 36 37 38 39 40 41 42 43 44 45 46 47 48 49 50
000
ASUS43 KIND 300009
RWRIN

WEATHER ROUNDUP FOR INDIANA
NATIONAL WEATHER SERVICE INDIANAPOLIS IN
800 PM EDT SUN MAY 29 2016

NOTE: "FAIR" INDICATES FEW OR NO CLOUDS BELOW 12,000 FEET WITH NO
SIGNIFICANT WEATHER AND/OR OBSTRUCTIONS TO VISIBILITY.

* - STATION DOES NOT REPORT WEATHER SUCH AS PRECIPITATION OR FOG.

+ - STATION NOT QUALITY CONTROLLED BY THE NATIONAL WEATHER SERVICE.
    USE DATA WITH CAUTION...ESPECIALLY DEWPOINT AND RELATIVE
    HUMIDITY OBSERVATIONS.

INZ001>003-010>013-019-020-300100-
NORTHWEST INDIANA

CITY           SKY/WX    TMP DP  RH WIND       PRES   REMARKS
GARY /AIRPORT/ MOSUNNY   81  64  57 W18       29.99S
KNOX *+        SUNNY     79  37  22 W14       29.99R
LA PORTE +     SUNNY     79  57  46 W6        30.00S
6HR MIN TEMP:  79; 6HR MAX TEMP:  84;

MICHIGAN CITY+ SUNNY     77  55  47 NW6       29.99F
MONTICELLO +   SUNNY     81  46  29 W10       29.98F
6HR MIN TEMP:  80; 6HR MAX TEMP:  86;

RENSSELAER +   MOSUNNY   81  48  32 W9        29.99S
VALPARAISO     SUNNY     79  56  45 W9        30.00S
6HR MIN TEMP:  79; 6HR MAX TEMP:  84;


$$

LMZ046-743>745-300100-
SOUTHERN LAKE MICHIGAN

STATION/POSITION TIME  TEMP    WIND        PRES    WAVE
                       AIR SEA DIR/SP/G            HT
                 (UTC) (F)     (DEG/KT/KT) (MB)    (FT)
BURNS HARBOR     2300   69     280/  7/  8 1015.9F
MICHIGAN CITY    2300   71     250/ 13/ 15   N/A
5NW MICH CITY    0000   65 59  240/  4/  6   N/A     1

$$

INZ004-005-014>016-021>024-300100-
NORTH CENTRAL INDIANA

CITY           SKY/WX    TMP DP  RH WIND       PRES   REMARKS
GOSHEN         SUNNY     76  57  51 NW16      29.98R
6HR MIN TEMP:  76; 6HR MAX TEMP:  85;

LOGANSPORT +   SUNNY     81  54  39 W12G17    29.99S
PERU/GRISSOM   SUNNY     82  54  38 W16       29.98S
6HR MIN TEMP:  82; 6HR MAX TEMP:  86;

ROCHESTER +    MOSUNNY   82  54  36 W9        29.98S
SOUTH BEND     SUNNY     77  56  48 W14       29.99S
6HR MIN TEMP:  77; 6HR MAX TEMP:  85;

WARSAW +       MOSUNNY   81  54  39 W14       29.97S

$$

INZ006>009-017-018-025>027-300100-
NORTHEAST INDIANA

CITY           SKY/WX    TMP DP  RH WIND       PRES   REMARKS
ANGOLA *+        N/A     84  79  84 W13       29.96S HX  96
AUBURN +       SUNNY     81  50  34 W9G20     29.97S
FORT WAYNE     MOSUNNY   84  51  31 W17       29.97R
6HR MIN TEMP:  84; 6HR MAX TEMP:  89;

HUNTINGTON +   SUNNY     81  52  36 W8        29.97S
6HR MIN TEMP:  81; 6HR MAX TEMP:  85;


$$

INZ028-029-035-036-043>045-051>053-300100-
WEST CENTRAL INDIANA

CITY           SKY/WX    TMP DP  RH WIND       PRES   REMARKS
CRAWFORDSVL +  CLOUDY    81  52  37 W12       30.01S
6HR MIN TEMP:  79; 6HR MAX TEMP:  85;

GREENCASTLE +  CLOUDY    81  61  50 W3        30.01F
LAFAYETTE      SUNNY     79  53  40 W10       29.99F
6HR MIN TEMP:  79; 6HR MAX TEMP:  85;

TERRE HAUTE    CLOUDY    83  59  44 SW10      30.01F
6HR MIN TEMP:  82; 6HR MAX TEMP:  86;


$$

INZ030>032-037>040-046>048-054>057-064-065-300100-
CENTRAL INDIANA

CITY           SKY/WX    TMP DP  RH WIND       PRES   REMARKS
CP ATTERBURY + SUNNY     73  63  68 SW5       30.01S
FISHERS *+     MOSUNNY   82  59  44 W9        30.00S
FRANKFORT +      N/A     83  28  13 NW13      30.02S
6HR MIN TEMP:  82; 6HR MAX TEMP:  87;

GREENWOOD *+   MOSUNNY   75  68  78 CALM      30.01
INDIANAPOLIS   PTSUNNY   81  55  40 W9        29.99F
6HR MIN TEMP:  79; 6HR MAX TEMP:  85; 6HR PCP: TRACE;

-EAGLE CREEK   CLOUDY    82  55  39 W10       29.99F
6HR MIN TEMP:  82; 6HR MAX TEMP:  85;

KOKOMO *+      SUNNY     82  52  34 NW16      29.98S
6HR MIN TEMP:  82; 6HR MAX TEMP:  86;

MARION +       SUNNY     83  51  32 W16G22    29.99S HAZE
SHELBYVILLE    SUNNY     80  62  54 SW7       30.00S
6HR MIN TEMP:  80; 6HR MAX TEMP:  89;

ZIONSVILLE +   CLOUDY    81  56  42 W10       30.01F
6HR MIN TEMP:  81; 6HR MAX TEMP:  84;


$$

INZ033-034-041-042-049-050-058-059-300100-
EAST CENTRAL INDIANA

CITY           SKY/WX    TMP DP  RH WIND       PRES   REMARKS
MUNCIE         MOSUNNY   85  52  32 W8        29.99S
6HR MIN TEMP:  77; 6HR MAX TEMP:  89; 6HR PCP:  0.01;


$$

INZ060-061-067>069-081>083-085>088-300100-
SOUTHWEST INDIANA

CITY           SKY/WX    TMP DP  RH WIND       PRES   REMARKS
EVANSVILLE     PTSUNNY   80  65  59 S3        30.03S
6HR MIN TEMP:  72; 6HR MAX TEMP:  85; 6HR PCP:  0.06;

HUNTINGBURG *+ SUNNY     77  64  65 SW5       30.03S
6HR MIN TEMP:  66; 6HR MAX TEMP:  88;

WASHINGTON +   MOSUNNY   80  68  67 SW6       30.01S
6HR MIN TEMP:  69; 6HR MAX TEMP:  86; 6HR PCP:  0.34;


$$

INZ062-063-066-070>080-084-089>092-300100-
SOUTH CENTRAL AND SOUTHEAST INDIANA

CITY           SKY/WX    TMP DP  RH WIND       PRES   REMARKS
BLOOMINGTON    SUNNY     77  67  71 W5        30.01F
6HR MIN TEMP:  68; 6HR MAX TEMP:  85; 6HR PCP:  0.76;

MADISON *+     CLOUDY    81  63  54 W5        30.02F
SEYMOUR +      MOSUNNY   81  66  61 NW5       30.00F

$$





USA.gov is the U.S. government's official web portal to all federal, state and local government web resources and services.